Home > Time Zones > World Clock > Weather > Spain > Cadiz > Past weeks

Flag for Spain Weather past 2 weeks in Cadiz, Cádiz, Spain

Now
59 °F

Passing clouds.


Feels Like: 57 °F
Forecast: 52 / 63 °F
Wind: 10 mph from West

Location: Rota Airport

Current Time: Feb 28, 2015 at 6:44:10 PM

Latest Report: Feb 28, 2015 at 6:00 PM


Visibility: N/A

Pressure: 30.27 "Hg

Humidity: 82%

Dew point: 54 °F

Location of CadizLocation

Historic Weather in Cadiz — Graph

°F

Cadiz temperature yesterday

Maximum temperature yesterday: 61 °F (at 3:00 PM)
Minimum temperature yesterday: 52 °F (at 3:00 AM)
Average temperature yesterday: 56 °F

Past Weeks' High & Low Weather Summary

 TemperatureHumidityPressure
High64 °F (Feb 18, 4:00 PM)100% (Feb 15, 4:00 AM)30.54 "Hg (Feb 15, 4:00 AM)
Low41 °F (Feb 19, 8:00 AM)43% (Feb 19, 5:00 PM)29.86 "Hg (Feb 21, 4:00 PM)
Average54 °F76%30.23 "Hg
* Reported Feb 13 4:00 PM — Feb 28 4:00 PM, Cadiz, Weather by CustomWeather, © 2015

Note: Actual official high and low records may vary slightly from our data, if they occured in-between our weather recording intervals... More about our weather records

Advertising

Cadiz weather history for previous 24 hours

 ConditionsComfort  
Time TempWeatherWind HumidityBarometerVisibility
4:00 PM
Sat, Feb 28
61 °FPassing clouds.10 mph68%30.27 "HgN/A
3:00 PM61 °FPassing clouds.10 mph63%30.27 "HgN/A
2:00 PM61 °FPassing clouds.10 mph68%30.30 "HgN/A
1:00 PM63 °FPassing clouds.6 mph49%30.30 "HgN/A
12:00 PM59 °FPassing clouds.5 mph55%30.33 "HgN/A
11:00 AM55 °FPassing clouds.7 mph72%30.33 "HgN/A
10:00 AM54 °FPassing clouds.13 mph77%30.30 "HgN/A
9:00 AM52 °FSunny.8 mph77%30.30 "Hg10 mi
8:00 AM50 °FPassing clouds.9 mph82%30.27 "HgN/A
7:00 AM50 °FPassing clouds.6 mph82%30.27 "HgN/A
6:00 AM50 °FClear.6 mph82%30.24 "Hg10 mi
5:00 AM52 °FClear.9 mph77%30.24 "Hg10 mi
4:00 AM54 °FClear.9 mph72%30.27 "Hg10 mi
3:00 AM54 °FPassing clouds.8 mph72%30.27 "HgN/A
2:00 AM55 °FClear.10 mph77%30.30 "Hg10 mi
1:00 AM55 °FClear.9 mph77%30.27 "Hg10 mi
12:00 AM55 °FClear.8 mph82%30.30 "Hg10 mi
11:00 PM
Fri, Feb 27
55 °FClear.8 mph94%30.30 "Hg10 mi
10:00 PM57 °FClear.10 mph88%30.27 "Hg10 mi
9:00 PM57 °FClear.14 mph88%30.27 "Hg10 mi
8:00 PM57 °FClear.15 mph88%30.27 "Hg10 mi
7:00 PM57 °FSunny.14 mph88%30.24 "Hg10 mi
6:00 PM59 °FPassing clouds.16 mph82%30.24 "HgN/A
Weather by CustomWeather, © 2015

See weather overviewHow to use our weather pages